User: anonymous   Login
Location: Unspecified
(0.0000°N, 0.0000°E)
Time: 10:40:06
(UTC+02:00)
Language:

Cosmos 2279 Rocket - Orbit

View from above orbital plane
View from above orbital plane
View from above satellite
View from above satellite

Ground track
Ground track

The orbit data is extracted from the following two-line orbital elements,

1 23093U 94024B   18113.83530290 -.00000008 +00000-0 -23468-4 0  9997
2 23093 082.9470 243.4193 0009612 206.8301 153.2360 13.77759452673964
Epoch (UTC): 23 April 2018 20:02:50
Eccentricity: 0.0009612
inclination: 82.9470°
perigee height: 965 km
apogee height: 979 km
right ascension of ascending node: 243.4193°
argument of perigee: 206.8301°
revolutions per day: 13.77759452
mean anomaly at epoch: 153.2360°
orbit number at epoch: 67396

The dashed part of the orbit path shows where the satellite is in the earth's shadow,  

DLR